Location: B�rndorf
(49.1963°N, 12.7820°E)
Time: 17:52:12
(UTC+00:00)

Daily predictions for brighter satellites

Satellite Brightness Start Highest point End
(mag) Time Altitude Azimuth Time Altitude Azimuth Time Altitude Azimuth
STARLINK-1225 4.0 18:10:08 10° W 18:14:15 67° NNW 18:18:24 10° ENE
STARLINK-1205 3.9 18:11:54 10° W 18:14:55 43° N 18:17:56 10° ENE
STARLINK-1204 3.9 18:12:21 10° W 18:15:21 43° N 18:18:22 10° ENE
USA 186 2.2 18:12:52 10° SE 18:16:05 44° ENE 18:19:13 10° N
STARLINK-1104 4.1 18:13:56 10° WNW 18:18:00 56° SSW 18:22:03 10° SE
Cosmos 1269 Rocket 4.4 18:13:08 10° SSW 18:18:26 74° WNW 18:23:46 10° NNE
STARLINK-1230 4.0 18:15:08 10° W 18:19:15 64° NNW 18:23:23 10° ENE
STARLINK-1144 4.2 18:18:55 10° WNW 18:22:57 52° SSW 18:26:59 10° SE
STARLINK-1243 4.1 18:20:07 10° W 18:24:14 62° NNW 18:28:22 10° ENE
STARLINK-1209 3.9 18:21:36 10° WNW 18:24:23 37° N 18:27:12 10° ENE
ARGOS Delta rocket 4.2 18:22:00 10° SSE 18:27:14 90° W 18:32:44 10° NNW
Cosmos 292 Rocket 3.8 18:22:43 10° NNW 18:27:32 71° ENE 18:32:20 10° SSE
STARLINK-1103 4.3 18:23:54 10° WNW 18:27:54 49° SW 18:31:54 10° SE
Cosmos 2251 Rocket 3.9 18:23:53 10° S 18:28:56 45° ESE 18:34:03 10° NE
STARLINK-1236 4.1 18:25:11 10° W 18:29:17 60° NNW 18:33:24 10° ENE
NOSS 3-4 (A) 4.4 18:24:11 10° NW 18:30:39 45° NE 18:37:30 11° ESE
NOSS 3-4 (C) 4.4 18:24:17 10° NW 18:30:45 45° NE 18:37:35 11° ESE
ERBS 4.4 18:28:37 10° WNW 18:31:20 22° N 18:34:03 10° NE
Cosmos 1953 2.7 18:28:11 10° SSE 18:31:54 41° E 18:35:41 10° NNE
Cosmos 1455 Rocket 4.2 18:27:46 10° SSW 18:31:59 49° WNW 18:36:16 10° N
MONITOR-E 3.7 18:30:05 10° SSE 18:32:42 65° ENE 18:35:21 10° N
STARLINK-1101 4.4 18:28:54 10° WNW 18:32:52 45° SW 18:36:50 10° SE
Cosmos 2315 Rocket 4.1 18:28:56 10° S 18:35:16 87° E 18:41:42 10° N
Cosmos 1626 Rocket 3.9 18:33:58 10° NNW 18:38:21 68° W 18:42:39 10° S
Resurs 01 Rocket 2.7 18:34:55 11° ESE 18:38:25 28° ENE 18:42:10 10° N
FREGAT/IRIS 2.3 18:35:59 10° SSE 18:38:42 87° WSW 18:41:26 10° NNW
Cosmos 2369 Rocket 2.2 18:33:08 10° NNW 18:38:54 82° ENE 18:44:33 10° SSE
STARLINK-1269 4.2 18:35:08 10° W 18:39:13 57° NNW 18:43:20 10° ENE
Aureole 3 3.9 18:35:40 10° S 18:40:06 64° E 18:45:49 10° NNE
Cosmos 1626 3.8 18:37:30 10° NNW 18:40:57 37° W 18:44:23 10° SSW
NOSS 3-3 (A) 4.1 18:35:46 10° SSW 18:41:22 48° ESE 18:47:39 10° NE
NOSS 3-3 (C) 4.1 18:35:54 10° SSW 18:41:28 48° ESE 18:47:45 10° NE
STARLINK-1200 4.2 18:40:08 10° W 18:44:13 55° NNW 18:48:18 10° ENE
Cosmos 1943 Rocket 2.4 18:39:21 10° NNW 18:44:54 72° WSW 18:50:27 10° SSE
IRIDIUM 104 4.3 18:39:55 10° N 18:45:08 66° E 18:50:19 10° SSE
Cosmos 1437 3.0 18:42:17 10° N 18:45:12 42° ENE 18:47:33 14° SE
ADEOS Rocket 4.2 18:39:13 10° N 18:45:38 49° WNW 18:51:24 10° SW
SL-8 R/B 4.0 18:41:20 10° W 18:46:02 58° SSW 18:49:51 15° SE
CZ-2C R/B 4.1 18:43:22 10° NNE 18:47:54 43° E 18:52:21 10° S
Cosmos 1602 Rocket 3.9 18:43:41 10° NNW 18:48:08 69° W 18:52:29 10° S
STARLINK-1192 4.3 18:45:09 10° W 18:49:13 54° N 18:53:18 10° ENE
Cosmos 1470 3.5 18:48:37 10° SSW 18:52:27 57° WNW 18:56:19 10° N
STARLINK-1244 4.3 18:50:09 10° W 18:54:13 53° N 18:58:17 10° ENE
Cosmos 2263 4.2 18:48:35 10° NNW 18:54:14 79° ENE 18:59:32 12° SSE
IRIDIUM 114 4.3 18:49:04 10° N 18:54:19 78° E 18:59:32 10° S
Cosmos 1908 4.2 18:52:23 14° SE 18:55:00 27° E 18:58:20 10° NNE
Ariane Rocket 3.8 18:51:23 10° S 18:56:20 54° W 19:01:19 10° NNW
STARLINK-1138 4.3 18:55:10 10° W 18:59:13 52° N 19:03:05 11° ENE
Aureole 2 Rocket 3.3 18:56:18 10° NNW 18:59:42 49° WSW 19:03:02 10° S
Abrixas rocket 1.9 18:56:50 10° WSW 18:59:46 65° S 19:01:18 25° E
STARLINK-67 3.6 18:58:11 10° WNW 19:00:36 35° N 19:01:57 20° ENE
Cosmos 2074 Rocket 4.0 18:54:38 10° N 19:00:58 77° E 19:07:15 10° SSE
Cosmos 1726 Rocket 4.1 18:57:44 10° SSE 19:01:45 36° E 19:05:51 10° NNE
ATLAS 2AS CENTAUR R/B 3.1 18:55:45 10° NW 19:03:27 63° NE 19:08:47 19° ESE
IRIDIUM 103 4.3 18:58:14 10° N 19:03:30 88° W 19:08:43 10° S
STARLINK-1143 4.3 19:00:06 10° W 19:04:10 51° N 19:07:48 13° ENE
Cosmos 1943 3.3 18:58:59 10° S 19:04:28 54° ESE 19:10:01 10° NE
ISS -2.2 19:02:20 10° W 19:05:16 28° SW 19:07:16 16° SSE
Cosmos 1825 Rocket 3.5 19:01:27 10° N 19:05:54 74° E 19:10:02 11° SSE
USA 234 3.7 19:00:04 10° ENE 19:06:07 38° SE 19:12:08 10° SSW
SL-08 RB Rocket 3.9 19:04:05 10° S 19:08:37 76° WSW 19:13:14 10° NNW
Spot 2 Rocket 4.4 19:06:11 20° ESE 19:08:53 33° ENE 19:13:24 10° N
STARLINK-1241 4.3 19:05:10 10° W 19:09:13 50° N 19:12:39 14° ENE
SPOT 3 Rocket 3.6 19:07:29 10° SSE 19:12:43 87° WSW 19:17:58 10° NNW
STARLINK-1239 4.4 19:10:11 10° W 19:14:14 50° N 19:17:25 15° ENE
Cosmos 1610 Rocket 4.5 19:10:12 10° N 19:16:25 67° ENE 19:21:46 14° SSE
Cosmos 1758 Rocket 3.7 19:13:18 10° NNW 19:17:39 72° W 19:21:57 10° S
SJ-6B 3.9 19:15:15 10° S 19:19:12 46° W 19:23:13 10° NNW
STARLINK-1240 4.4 19:15:11 10° W 19:19:13 49° N 19:22:12 17° ENE
MOS 1 Rocket 3.6 19:17:14 10° NNE 19:22:31 61° E 19:27:53 10° S
STARLINK-1216 4.4 19:20:12 10° W 19:24:14 49° N 19:27:00 19° ENE
CZ-4C R/B 4.4 19:19:46 10° NW 19:24:48 24° N 19:30:32 10° ENE
Cosmos 1953 Rocket 3.5 19:20:23 10° N 19:24:53 79° E 19:27:53 21° SSE
SL-16 R/B 4.0 19:21:02 10° WSW 19:26:07 33° NW 19:31:14 10° NNE
CZ-2C R/B 4.4 19:24:21 10° SSW 19:28:53 36° W 19:33:20 10° NNW
STARLINK-1237 4.4 19:25:12 10° WNW 19:29:14 49° N 19:31:47 21° ENE
Terra 3.6 19:28:43 16° ENE 19:29:36 17° ENE 19:32:34 10° NNE
Cosmos 1818 3.5 19:24:22 10° SSW 19:29:42 59° ESE 19:35:04 10° NE
Cosmos 1606 Rocket 3.5 19:25:23 10° S 19:29:48 86° E 19:34:18 10° N
Cosmos 921 Rocket 3.6 19:27:57 10° N 19:31:55 39° ENE 19:32:50 34° E
BREEZE M DEB (TANK) 3.8 19:24:36 10° SW 19:33:22 42° SSE 19:34:30 34° ESE
Cosmos 614 Rocket 4.1 19:28:38 10° S 19:33:42 53° ESE 19:38:47 10° NNE
STARLINK-1233 3.8 19:30:42 10° WNW 19:33:44 42° N 19:34:36 32° NE
STARLINK-1212 3.8 19:31:10 10° WNW 19:34:11 41° N 19:35:01 33° NE
STARLINK-1202 4.4 19:30:12 10° WNW 19:34:14 48° N 19:36:33 23° ENE
SL-24 R/B 4.2 19:29:56 10° N 19:34:19 71° WNW 19:38:12 10° SSW
CZ-2C R/B 2.4 19:29:21 10° NNE 19:34:32 71° ESE 19:39:42 10° S
STARLINK-1105 3.8 19:31:37 10° WNW 19:34:38 42° N 19:35:29 33° NE
Cosmos 407 Rocket 3.7 19:30:03 11° S 19:34:46 45° ESE 19:39:39 10° NE
STARLINK-1206 3.8 19:32:06 10° WNW 19:35:05 41° N 19:35:53 34° NE
STARLINK-1247 3.8 19:32:33 10° WNW 19:35:32 41° N 19:36:19 34° NE
STARLINK-1203 4.3 19:31:33 10° WNW 19:35:34 48° N 19:37:45 24° ENE
Cosmos 2228 2.9 19:31:36 10° S 19:35:53 88° WNW 19:40:14 10° N
STARLINK-1227 3.8 19:32:56 10° WNW 19:35:58 42° N 19:36:46 34° NE
STARLINK-1218 3.8 19:33:27 10° WNW 19:36:28 42° N 19:37:11 35° NE
Cosmos 1656 Rocket 3.8 19:31:02 10° NNW 19:36:43 76° WSW 19:40:14 24° SSE
STARLINK-1226 3.8 19:33:53 10° WNW 19:36:53 42° N 19:37:37 35° NE
STARLINK-1254 3.8 19:34:19 10° WNW 19:37:20 42° N 19:38:04 35° NE
STARLINK-1215 3.8 19:34:49 10° WNW 19:37:49 42° N 19:38:29 36° NE
SPOT 1/Viking Rocket 4.2 19:36:24 30° ESE 19:38:04 38° ENE 19:42:53 10° N
STARLINK-1231 3.8 19:35:17 10° WNW 19:38:16 42° N 19:38:56 36° NE
STARLINK-1232 3.7 19:36:10 10° WNW 19:39:10 42° N 19:39:48 37° NE
STARLINK-1217 3.7 19:36:37 10° WNW 19:39:37 42° N 19:40:14 37° NE
STARLINK-1208 3.8 19:37:02 10° WNW 19:40:04 43° N 19:40:40 37° NE
IGS 5A 4.1 19:39:45 35° E 19:40:15 36° ENE 19:44:05 10° N
STARLINK-1229 3.7 19:37:30 10° WNW 19:40:30 42° N 19:41:04 38° NE
STARLINK-1271 3.7 19:37:57 10° WNW 19:40:58 43° N 19:41:32 38° NE
STARLINK-1270 3.7 19:38:25 10° WNW 19:41:26 43° N 19:41:57 38° NE
STARLINK-1154 3.7 19:38:52 10° WNW 19:41:53 43° N 19:42:23 39° NE
Cosmos 1295 Rocket 4.4 19:36:02 10° N 19:42:20 77° E 19:46:25 24° SSE
SAR-Lupe-2 3.8 19:38:56 10° NNE 19:42:09 48° E 19:42:09 48° E
STARLINK-1197 3.7 19:39:46 10° WNW 19:42:47 43° N 19:43:15 39° NE
STARLINK-1189 3.7 19:40:14 10° WNW 19:43:15 43° N 19:43:42 40° NE
STARLINK-1198 3.7 19:40:40 10° WNW 19:43:41 43° N 19:44:07 40° NE
STARLINK-1188 3.7 19:41:07 10° WNW 19:44:09 43° N 19:44:33 40° NE
STARLINK-1246 4.3 19:40:10 10° WNW 19:44:13 49° N 19:46:06 27° ENE
STARLINK-1235 3.5 19:41:46 10° WNW 19:44:51 47° NNE 19:45:11 45° NE
STARLINK-1187 3.6 19:42:06 10° WNW 19:45:10 46° N 19:45:33 43° NE
Cosmos 2341 Rocket 4.1 19:39:08 10° N 19:45:27 62° ENE 19:48:37 31° SSE
BREEZE-M DEB (TANK) 3.4 19:40:21 10° WNW 19:45:35 52° SSW 19:45:58 48° S
SL-4 R/B 3.5 19:42:41 10° SW 19:43:45 18° SSW 19:43:45 18° SSW
COSMOS 2455 3.1 19:39:54 10° NNW 19:45:50 55° NE 19:48:18 34° ESE
STARLINK-1199 3.6 19:43:03 10° WNW 19:46:06 44° N 19:46:28 42° NNE
STARLINK-1191 3.6 19:43:31 10° WNW 19:46:34 44° N 19:46:54 42° NNE
STARLINK-1201 3.7 19:43:41 10° WNW 19:46:51 45° N 19:47:21 41° NE
STARLINK-1210 3.6 19:43:58 10° WNW 19:47:00 44° N 19:47:20 42° NNE
STARLINK-1221 3.6 19:44:25 10° WNW 19:47:27 44° N 19:47:46 43° NNE
STARLINK-1219 3.6 19:44:52 10° WNW 19:47:55 45° N 19:48:12 43° NNE
Cosmos 1603 4.1 19:42:33 10° SW 19:48:07 63° WNW 19:53:43 10° NNE
STARLINK-1222 3.6 19:45:19 10° WNW 19:48:22 45° N 19:48:38 43° NNE
Cosmos 1726 3.7 19:44:53 10° SW 19:48:23 37° WNW 19:51:54 10° N
Cosmos 1340 Rocket 2.7 19:47:47 48° SSE 19:48:40 65° E 19:52:42 10° NNE
Cosmos 1980 Rocket 4.5 19:46:32 10° N 19:48:43 12° NNE 19:50:54 10° NE
STARLINK-1211 3.6 19:45:46 10° WNW 19:48:50 45° N 19:49:04 43° NNE
ERS-1 Rocket 3.7 19:47:58 33° E 19:48:58 36° ENE 19:53:34 10° N
STARLINK-1224 4.3 19:45:13 10° WNW 19:49:16 49° N 19:50:56 30° ENE
STARLINK-1214 3.6 19:46:14 10° WNW 19:49:17 45° N 19:49:31 44° NNE
STARLINK-1234 3.4 19:46:40 10° WNW 19:49:39 49° NNE 19:49:39 49° NNE
STARLINK-1228 3.4 19:46:50 10° WNW 19:49:30 47° N 19:49:30 47° N
STARLINK-1245 3.6 19:46:42 10° WNW 19:49:44 45° N 19:49:55 44° NNE
STARLINK-1238 3.6 19:47:07 10° WNW 19:50:10 45° N 19:50:23 44° NNE
H-2A R/B 4.2 19:46:51 10° SW 19:51:00 23° W 19:55:05 10° NW
STARLINK-1205 3.6 19:48:04 10° WNW 19:51:06 45° NNE 19:51:14 45° NNE
STARLINK-1204 3.6 19:48:30 10° WNW 19:51:33 45° N 19:51:39 45° NNE
STARLINK-1225 4.3 19:50:11 10° WNW 19:54:14 49° N 19:55:40 33° ENE
Cosmos 1892 4.4 19:54:34 10° NNE 19:56:50 22° NE 19:56:50 22° NE
STARLINK-1230 4.3 19:55:11 10° WNW 19:59:14 50° N 20:00:28 36° NE
STARLINK-1209 3.7 19:57:03 10° WNW 19:59:26 45° NNW 19:59:26 45° NNW
STARLINK-1243 4.3 20:00:10 10° WNW 20:04:13 50° N 20:05:14 40° NE
ATLAS CENTAUR R/B 3.9 20:02:51 10° N 20:04:27 12° NNE 20:06:01 10° NE
Cosmos 2218 Rocket 4.1 20:00:08 10° N 20:06:13 55° ENE 20:07:52 43° ESE
Cosmos 1461 3.0 20:02:47 10° NW 20:07:19 83° NE 20:07:55 66° SE
ERBS 3.9 20:05:30 10° NW 20:08:27 27° NNE 20:08:37 27° NNE
STARLINK-1236 4.2 20:05:13 10° WNW 20:09:16 51° N 20:10:04 44° NE
Cosmos 1076 Rocket 4.1 20:07:35 10° N 20:11:09 41° NE 20:11:09 41° NE
Cosmos 1023 Rocket 4.3 20:11:23 42° S 20:13:08 72° ESE 20:18:17 10° NNE
Resurs 01 Rocket 2.9 20:12:28 22° SSW 20:14:47 37° W 20:18:55 10° NNW
ATLAS 5 CENTAUR R/B 4.1 20:20:51 11° NE 20:20:51 11° NE 20:21:05 10° NE
In-Cosmos 22 Rocket 4.3 20:13:19 10° N 20:19:09 65° ENE 20:20:12 54° ESE
STARLINK-1269 4.1 20:15:09 10° WNW 20:19:14 53° N 20:19:36 51° NNE
USA 245 4.3 20:18:18 43° S 20:20:12 77° WSW 20:26:26 10° NNW
Cosmos 2181 Rocket 3.9 20:18:41 45° SSE 20:20:36 69° E 20:26:46 10° NNE
Cosmos 2058 Rocket 3.7 20:18:19 25° SSW 20:20:45 57° WNW 20:25:14 10° N
NOSS 3-4 (A) 4.1 20:15:04 10° NW 20:21:58 63° SW 20:24:57 38° S
NOSS 3-4 (C) 4.0 20:15:10 10° NW 20:22:04 64° SW 20:25:02 38° S
Cosmos 2369 Rocket 4.5 20:18:27 10° WNW 20:22:12 18° W 20:25:55 10° SW
Cosmos 1300 3.3 20:23:46 49° N 20:23:46 49° N 20:26:39 10° N
STARLINK-1200 4.1 20:20:08 10° WNW 20:24:13 54° N 20:24:22 53° NNE
Landsat 7 3.8 20:24:18 67° S 20:24:55 81° WSW 20:29:43 10° NNW
Cosmos 1763 Rocket 4.1 20:23:45 10° NNW 20:28:42 41° ENE 20:28:47 41° ENE
STARLINK-1192 4.1 20:25:08 10° WNW 20:29:09 55° N 20:29:09 55° N
SL-8 Rocket 3.9 20:24:41 10° N 20:31:02 87° W 20:32:55 49° S
STARLINK-1244 4.2 20:30:07 10° WNW 20:33:56 55° N 20:33:56 55° N
Cosmos 864 Rocket 4.4 20:29:14 10° N 20:35:30 80° E 20:36:39 61° SSE
CARTOSAT-1 3.8 20:36:52 63° N 20:36:52 63° N 20:40:36 10° N
SPOT 5 2.9 20:39:20 63° NNE 20:39:20 63° NNE 20:43:03 10° NNW
Cosmos 2058 3.5 20:34:45 10° N 20:37:54 51° N 20:37:54 51° N
STARLINK-1138 4.3 20:35:07 10° WNW 20:38:43 53° NNW 20:38:43 53° NNW
SL-24 R/B - RUBIN 2 4.2 20:33:36 10° SW 20:39:16 87° SE 20:45:40 10° NE
Cosmos 2366 rocket 3.8 20:35:12 10° N 20:41:22 90° N 20:42:31 62° S
STARLINK-1143 4.4 20:40:03 10° WNW 20:43:27 51° NNW 20:43:27 51° NNW
Cosmos 1190 Rocket 4.5 20:40:52 17° SW 20:44:53 60° WNW 20:50:08 10° NNE
USA 234 3.2 20:42:57 10° NE 20:49:31 82° NNW 20:56:04 10° WSW
Cosmos 1140 Rocket 4.0 20:51:22 31° SW 20:53:43 57° WNW 20:58:50 10° NNE
ATLAS 2AS CENTAUR R/B 3.6 20:47:16 10° NW 20:54:08 40° WSW 20:56:14 33° SSW
Iridium 4 Rocket 3.8 20:53:15 10° N 20:56:43 50° NW 20:56:43 50° NW
Cosmos 1812 Rocket 4.5 21:00:32 45° N 21:00:32 45° N 21:03:37 10° N
Meteor 2-12 Rocket 4.3 20:53:14 10° N 20:59:24 85° W 20:59:54 76° SSW
RESURS DK-1 4.1 20:57:09 10° NNW 20:59:42 28° NNE 20:59:42 28° NNE
BREEZE M DEB (TANK) 3.6 21:02:08 69° SSE 21:02:08 69° SSE 21:16:36 10° ENE
Cosmos 841 Rocket 4.3 20:57:10 10° NNW 21:01:39 42° NE 21:01:39 42° NE
Terra 2.2 21:07:36 60° NNW 21:07:36 60° NNW 21:11:34 10° NNW
Cosmos 1697 Rocket 3.4 21:01:42 10° NNW 21:06:58 43° NE 21:06:58 43° NE
Cosmos 468 Rocket 4.2 21:05:04 10° NNW 21:09:34 67° NW 21:09:34 67° NW
CZ-4C R/B 3.6 21:08:43 10° NW 21:15:07 42° NNE 21:17:32 34° ENE
Mayak 1.0 21:12:13 10° NNE 21:13:22 18° NNE 21:13:22 18° NNE
SL-16 R/B 4.4 21:13:24 10° N 21:16:45 16° NNE 21:18:42 13° NE
SL-08 R/B 4.4 21:10:45 10° NNW 21:16:52 74° W 21:17:08 72° WSW
Meteor 2-10 Rocket 4.4 21:20:36 43° NNE 21:20:36 43° NNE 21:24:14 10° NNE
Cosmos 1821 Rocket 4.0 21:17:44 10° N 21:23:55 79° NE 21:23:55 79° NE
Cosmos 489 Rocket 4.4 21:21:02 10° NNW 21:26:55 80° N 21:26:55 80° N
ERS-1 Rocket 4.2 21:27:58 35° W 21:27:58 35° W 21:32:23 10° NNW
Cosmos 2322 Rocket 4.4 21:24:48 10° N 21:28:09 16° NNE 21:30:00 14° NE
COSMOS 2455 3.9 21:26:13 10° NW 21:31:27 34° WSW 21:31:27 34° WSW
ASTEX 1 4.3 21:33:47 45° N 21:33:47 45° N 21:37:15 10° N
Cosmos 1980 Rocket 3.2 21:29:09 10° NNW 21:33:52 38° NE 21:33:52 38° NE
Cosmos 1934 Rocket 4.3 21:30:07 10° N 21:35:38 59° NE 21:35:38 59° NE
ATLAS CENTAUR R/B 3.8 21:40:51 10° NNW 21:42:19 20° NNW 21:42:19 20° NNW
Cosmos 1656 4.4 21:46:01 10° NNW 21:50:24 49° WNW 21:50:24 49° WNW
Cosmos 2278 4.4 21:47:47 10° NNW 21:52:13 50° N 21:52:13 50° N
Cosmos 2082 Rocket 4.1 22:02:45 20° NE 22:02:45 20° NE 22:04:38 10° NE
ATLAS 5 CENTAUR R/B 3.4 22:02:16 30° N 22:02:16 30° N 22:05:53 10° NNE
COSMOS 2406 4.1 22:09:22 44° NNE 22:09:22 44° NNE 22:13:14 10° NNE
Cosmos 1833 Rocket 4.0 22:21:36 34° NNE 22:21:36 34° NNE 22:24:43 10° NNE
USA 234 4.0 22:25:58 10° ENE 22:32:11 48° N 22:38:24 10° W
Cosmos 1697 Rocket 4.3 22:45:50 10° NW 22:48:42 26° WNW 22:48:42 26° WNW
Mayak 1.5 22:48:36 10° NNW 22:49:57 15° NW 22:49:57 15° NW
SL-16 R/B 3.3 22:56:35 10° NNW 23:00:33 41° N 23:00:33 41° N
CZ-4C R/B 3.2 22:57:08 10° NW 23:02:43 58° WNW 23:02:43 58° WNW
Cosmos 2360 Rocket 3.6 23:06:07 10° NNW 23:10:44 33° NE 23:10:44 33° NE
Cosmos 2333 Rocket 4.5 23:08:20 10° N 23:12:16 19° NE 23:15:07 13° ENE
Cosmos 2322 Rocket 3.3 23:07:56 10° NNW 23:11:48 40° N 23:11:48 40° N
Cosmos 1980 Rocket 3.9 23:13:13 10° NW 23:15:38 24° NW 23:15:38 24° NW
Resurs 1-4 Rocket 4.3 23:33:43 10° NE 23:36:00 16° ENE 23:36:00 16° ENE
Cosmos 2344 4.5 23:28:59 10° NW 23:38:30 59° WSW 23:38:51 59° SW
Cosmos 2082 Rocket 3.4 23:44:35 37° NNW 23:44:35 37° NNW 23:48:51 10° NNE
CZ-2D R/B 4.1 23:45:26 10° NE 23:48:41 22° ENE 23:48:41 22° ENE
